Zurück zum Katalog

ONEWEB-0340

AktivKommunikationPO
NORAD 49206·PAYLOAD·🇬🇧 United Kingdom

Gestartet Sep 14, 2021 von Baikonur Cosmodrome

Loading…

Nächste Überflüge (nächste 24 Stunden)

TLE

AktuellSource: CelesTrak SupGP

Epoche: Sep 14, 2026, 20:14 UTC

1 49206C 21083W   26257.84322176 -.00002848  00000+0 -72332-2 0  2579
2 49206  87.9165 317.6451 0001953 103.5876   8.9247 13.18690461    14

Verfolge ONEWEB-0340 in Echtzeit mit AllMySat

Download on the App Store